• In Deutschland
  • Länderverzeichnis
  • Für 7 Tage
  • Wassertemperatur
  • Satellitenkarten
  • Wetterkarte
  • Widgets
  • user-avatar
    Anmelden

    Stündliche Wetter Bururi

    Heute, 24 Oktober, Mittwoch

    Zeit Temperatur Niederschläge Wind Luftdruck Luftfeuchtigkeit
    00:00 +19°C° 0.3 mm 1 m/S 618 mmHg 74%
    01:00 +18°C° 0.3 mm 1 m/S 617 mmHg 76%
    02:00 +18°C° 0.3 mm 1 m/S 617 mmHg 77%
    03:00 +18°C° 0 mm 1 m/S 617 mmHg 78%
    04:00 +18°C° 0 mm 1 m/S 617 mmHg 78%
    05:00 +16°C° 0 mm 1 m/S 617 mmHg 79%
    06:00 +18°C° 0 mm 2 m/S 618 mmHg 72%
    07:00 +19°C° 0 mm 2 m/S 618 mmHg 65%
    08:00 +20°C° 0 mm 3 m/S 619 mmHg 58%
    09:00 +22°C° 0 mm 3 m/S 619 mmHg 53%
    10:00 +24°C° 0 mm 3 m/S 620 mmHg 47%
    11:00 +26°C° 0 mm 2 m/S 620 mmHg 42%
    12:00 +27°C° 0 mm 3 m/S 619 mmHg 40%
    13:00 +27°C° 0 mm 3 m/S 619 mmHg 39%
    14:00 +28°C° 0 mm 3 m/S 618 mmHg 37%
    15:00 +27°C° 0 mm 3 m/S 618 mmHg 40%
    16:00 +26°C° 0 mm 3 m/S 617 mmHg 42%
    17:00 +25°C° 0 mm 3 m/S 617 mmHg 45%
    18:00 +23°C° 0 mm 2 m/S 617 mmHg 49%
    19:00 +21°C° 0 mm 2 m/S 617 mmHg 54%
    20:00 +20°C° 0 mm 1 m/S 617 mmHg 58%
    21:00 +20°C° 0 mm 1 m/S 617 mmHg 59%
    22:00 +19°C° 0 mm 2 m/S 617 mmHg 60%
    23:00 +18°C° 0 mm 2 m/S 617 mmHg 61%

    Morgen, 25 Oktober, Donnerstag

    Zeit Temperatur Niederschläge Wind Luftdruck Luftfeuchtigkeit
    00:00 +18°C° 0 mm 2 m/S 617 mmHg 61%
    01:00 +19°C° 0 mm 1 m/S 616 mmHg 62%
    02:00 +18°C° 0 mm 1 m/S 616 mmHg 63%
    03:00 +18°C° 0 mm 1 m/S 616 mmHg 64%
    04:00 +18°C° 0 mm 1 m/S 616 mmHg 65%
    05:00 +16°C° 0 mm 1 m/S 616 mmHg 66%
    06:00 +19°C° 0 mm 1 m/S 617 mmHg 60%
    07:00 +19°C° 0 mm 2 m/S 618 mmHg 55%
    08:00 +21°C° 0 mm 2 m/S 619 mmHg 50%
    09:00 +23°C° 0 mm 2 m/S 619 mmHg 47%
    10:00 +25°C° 0 mm 3 m/S 619 mmHg 45%
    11:00 +26°C° 0 mm 3 m/S 619 mmHg 43%
    12:00 +26°C° 0 mm 3 m/S 619 mmHg 43%
    13:00 +26°C° 0 mm 3 m/S 618 mmHg 44%
    14:00 +26°C° 0 mm 3 m/S 617 mmHg 44%
    15:00 +25°C° 0.1 mm 3 m/S 617 mmHg 48%
    16:00 +24°C° 0.1 mm 2 m/S 617 mmHg 51%
    17:00 +23°C° 0.1 mm 2 m/S 617 mmHg 55%
    18:00 +21°C° 0.4 mm 2 m/S 617 mmHg 60%
    19:00 +20°C° 0.4 mm 2 m/S 617 mmHg 64%
    20:00 +19°C° 0.4 mm 2 m/S 618 mmHg 69%
    21:00 +18°C° 0.2 mm 2 m/S 618 mmHg 70%
    22:00 +18°C° 0.2 mm 2 m/S 618 mmHg 72%
    23:00 +18°C° 0.2 mm 2 m/S 618 mmHg 74%

    übermorgen, 26 Oktober, Freitag

    Zeit Temperatur Niederschläge Wind Luftdruck Luftfeuchtigkeit
    00:00 +17°C° 0.2 mm 2 m/S 617 mmHg 75%
    01:00 +17°C° 0.2 mm 2 m/S 617 mmHg 76%
    02:00 +17°C° 0.2 mm 2 m/S 616 mmHg 78%
    03:00 +18°C° 0 mm 1 m/S 616 mmHg 79%
    04:00 +16°C° 0 mm 1 m/S 616 mmHg 80%
    05:00 +16°C° 0 mm 1 m/S 616 mmHg 81%
    06:00 +17°C° 0 mm 2 m/S 617 mmHg 76%
    07:00 +18°C° 0 mm 2 m/S 618 mmHg 71%
    08:00 +20°C° 0 mm 3 m/S 619 mmHg 66%
    09:00 +21°C° 0 mm 3 m/S 619 mmHg 61%
    10:00 +24°C° 0 mm 3 m/S 620 mmHg 55%
    11:00 +26°C° 0 mm 3 m/S 620 mmHg 49%
    12:00 +26°C° 0.1 mm 3 m/S 619 mmHg 49%
    13:00 +26°C° 0.1 mm 2 m/S 618 mmHg 48%
    14:00 +26°C° 0.1 mm 2 m/S 618 mmHg 47%
    15:00 +25°C° 0.2 mm 2 m/S 617 mmHg 50%
    16:00 +24°C° 0.2 mm 2 m/S 617 mmHg 53%
    17:00 +23°C° 0.2 mm 2 m/S 616 mmHg 57%
    18:00 +21°C° 0.1 mm 2 m/S 617 mmHg 61%
    19:00 +21°C° 0.1 mm 1 m/S 617 mmHg 66%
    20:00 +20°C° 0.1 mm 1 m/S 617 mmHg 71%
    21:00 +20°C° 0.2 mm 1 m/S 618 mmHg 71%
    22:00 +19°C° 0.2 mm 1 m/S 618 mmHg 72%
    23:00 +19°C° 0.2 mm 1 m/S 618 mmHg 73%

    27 Oktober, Samstag

    Zeit Temperatur Niederschläge Wind Luftdruck Luftfeuchtigkeit
    00:00 +19°C° 0.1 mm 1 m/S 617 mmHg 74%
    01:00 +19°C° 0.1 mm 1 m/S 617 mmHg 76%
    02:00 +18°C° 0.1 mm 1 m/S 616 mmHg 77%
    03:00 +18°C° 0 mm 1 m/S 617 mmHg 78%
    04:00 +18°C° 0 mm 1 m/S 617 mmHg 79%
    05:00 +18°C° 0 mm 1 m/S 617 mmHg 80%
    06:00 +18°C° 0 mm 2 m/S 618 mmHg 74%
    07:00 +19°C° 0 mm 2 m/S 619 mmHg 68%
    08:00 +21°C° 0 mm 2 m/S 620 mmHg 63%
    09:00 +23°C° 0.1 mm 2 m/S 620 mmHg 58%
    10:00 +25°C° 0.1 mm 2 m/S 620 mmHg 54%
    11:00 +26°C° 0.1 mm 2 m/S 620 mmHg 49%
    12:00 +27°C° 0.3 mm 2 m/S 619 mmHg 48%
    13:00 +27°C° 0.3 mm 2 m/S 618 mmHg 48%
    14:00 +27°C° 0.3 mm 2 m/S 618 mmHg 47%
    15:00 +26°C° 0.4 mm 2 m/S 617 mmHg 49%
    16:00 +25°C° 0.4 mm 2 m/S 617 mmHg 52%
    17:00 +24°C° 0.4 mm 2 m/S 617 mmHg 55%
    18:00 +23°C° 0.3 mm 2 m/S 617 mmHg 60%
    19:00 +21°C° 0.3 mm 2 m/S 617 mmHg 65%
    20:00 +19°C° 0.3 mm 2 m/S 617 mmHg 69%
    21:00 +19°C° 0.3 mm 2 m/S 617 mmHg 70%
    22:00 +19°C° 0.3 mm 2 m/S 617 mmHg 70%
    23:00 +19°C° 0.3 mm 2 m/S 617 mmHg 70%

    28 Oktober, Sonntag

    Zeit Temperatur Niederschläge Wind Luftdruck Luftfeuchtigkeit
    00:00 +18°C° 0.2 mm 2 m/S 616 mmHg 71%
    01:00 +18°C° 0.2 mm 2 m/S 616 mmHg 71%
    02:00 +19°C° 0.2 mm 1 m/S 616 mmHg 71%
    03:00 +19°C° 0.3 mm 1 m/S 616 mmHg 72%
    04:00 +19°C° 0.3 mm 1 m/S 616 mmHg 72%
    05:00 +19°C° 0.3 mm 1 m/S 616 mmHg 73%
    06:00 +20°C° 0.2 mm 1 m/S 617 mmHg 68%
    07:00 +20°C° 0.2 mm 2 m/S 618 mmHg 64%
    08:00 +23°C° 0.2 mm 2 m/S 619 mmHg 59%
    09:00 +24°C° 0.1 mm 2 m/S 619 mmHg 55%
    10:00 +26°C° 0.1 mm 2 m/S 619 mmHg 51%
    11:00 +27°C° 0.1 mm 2 m/S 619 mmHg 47%
    12:00 +27°C° 0.2 mm 2 m/S 619 mmHg 46%
    13:00 +28°C° 0.2 mm 2 m/S 618 mmHg 46%
    14:00 +28°C° 0.2 mm 2 m/S 617 mmHg 45%
    15:00 +27°C° 0.3 mm 2 m/S 617 mmHg 48%
    16:00 +26°C° 0.3 mm 2 m/S 617 mmHg 51%
    17:00 +25°C° 0.3 mm 2 m/S 616 mmHg 54%
    18:00 +23°C° 0.4 mm 2 m/S 617 mmHg 59%
    19:00 +21°C° 0.4 mm 2 m/S 617 mmHg 64%
    20:00 +21°C° 0.4 mm 1 m/S 617 mmHg 69%
    21:00 +20°C° 0.3 mm 2 m/S 617 mmHg 70%
    22:00 +19°C° 0.3 mm 2 m/S 617 mmHg 70%
    23:00 +19°C° 0.3 mm 2 m/S 617 mmHg 71%

    29 Oktober, Montag

    Zeit Temperatur Niederschläge Wind Luftdruck Luftfeuchtigkeit
    00:00 +19°C° 0 mm 2 m/S 616 mmHg 72%
    01:00 +18°C° 0 mm 2 m/S 616 mmHg 73%
    02:00 +18°C° 0 mm 2 m/S 615 mmHg 74%
    03:00 +18°C° 0 mm 2 m/S 615 mmHg 73%
    04:00 +17°C° 0 mm 2 m/S 616 mmHg 73%
    05:00 +18°C° 0 mm 1 m/S 616 mmHg 73%
    06:00 +20°C° 0 mm 1 m/S 617 mmHg 67%
    07:00 +22°C° 0 mm 1 m/S 618 mmHg 61%
    08:00 +24°C° 0 mm 1 m/S 619 mmHg 55%
    09:00 +25°C° 0.2 mm 2 m/S 619 mmHg 52%
    10:00 +26°C° 0.2 mm 2 m/S 619 mmHg 49%
    11:00 +27°C° 0.2 mm 2 m/S 619 mmHg 46%
    12:00 +27°C° 0.5 mm 2 m/S 618 mmHg 47%
    13:00 +26°C° 0.5 mm 2 m/S 617 mmHg 49%
    14:00 +26°C° 0.5 mm 2 m/S 616 mmHg 50%
    15:00 +25°C° 1.1 mm 2 m/S 616 mmHg 55%
    16:00 +24°C° 1.1 mm 2 m/S 616 mmHg 60%
    17:00 +23°C° 1.1 mm 1 m/S 616 mmHg 65%
    18:00 +22°C° 2 mm 1 m/S 616 mmHg 71%
    19:00 +21°C° 2 mm 1 m/S 616 mmHg 76%
    20:00 +20°C° 2 mm 1 m/S 616 mmHg 81%
    21:00 +20°C° 1.5 mm 1 m/S 616 mmHg 82%
    22:00 +18°C° 1.5 mm 2 m/S 616 mmHg 82%
    23:00 +18°C° 1.5 mm 2 m/S 616 mmHg 83%

    30 Oktober, Dienstag

    Zeit Temperatur Niederschläge Wind Luftdruck Luftfeuchtigkeit
    00:00 +18°C° 0.8 mm 2 m/S 616 mmHg 82%
    01:00 +18°C° 0.8 mm 2 m/S 616 mmHg 82%
    02:00 +18°C° 0.8 mm 3 m/S 615 mmHg 82%
    03:00 +17°C° 0.2 mm 3 m/S 615 mmHg 82%
    04:00 +17°C° 0.2 mm 2 m/S 615 mmHg 81%
    05:00 +17°C° 0.2 mm 2 m/S 616 mmHg 81%
    06:00 +18°C° 0.1 mm 2 m/S 616 mmHg 76%
    07:00 +20°C° 0.1 mm 2 m/S 617 mmHg 70%
    08:00 +21°C° 0.1 mm 2 m/S 618 mmHg 65%
    09:00 +24°C° 0.2 mm 2 m/S 618 mmHg 59%
    10:00 +25°C° 0.2 mm 2 m/S 618 mmHg 54%
    11:00 +27°C° 0.2 mm 2 m/S 618 mmHg 48%
    12:00 +27°C° 0.5 mm 2 m/S 618 mmHg 49%
    13:00 +26°C° 0.5 mm 2 m/S 617 mmHg 51%
    14:00 +26°C° 0.5 mm 3 m/S 616 mmHg 52%
    15:00 +25°C° 0.9 mm 3 m/S 616 mmHg 58%
    16:00 +23°C° 0.9 mm 2 m/S 616 mmHg 65%
    17:00 +21°C° 0.9 mm 2 m/S 615 mmHg 72%
    18:00 +20°C° 1.2 mm 2 m/S 616 mmHg 75%
    19:00 +20°C° 1.2 mm 1 m/S 616 mmHg 79%
    20:00 +20°C° 1.2 mm 1 m/S 616 mmHg 82%
    21:00 +19°C° 1.4 mm 1 m/S 616 mmHg 83%
    22:00 +18°C° 1.4 mm 2 m/S 616 mmHg 84%
    23:00 +18°C° 1.4 mm 2 m/S 616 mmHg 85%
    Mehr zeigen